[[{"header":{"parameterUnit":"m.s-1","parameterCategory":2,"la1":30.2991,"la2":30.254,"lo1":-89.0895,"lo2":-89.0444,"dy":0.0017,"dx":0.0017,"nx":28,"ny":28,"refTime":"2026-02-02T03:00:00:Z","depth":"0","parameterNumber":2,"parameterNumberName":"U-component_of_CURRENTS"},"data":[0,0,0,0,0,0,0,0,0,0,0,0,0,0,0,0,0,0,0,0,0,0,0,0,0,0,0,0,0,0,0,0,0,0,0,0,0,0,0,0,0,0,0,0,0,0,0,0,0,0,0,0,0,0,0,0,0,0,0.2361,0.2361,0,0.2328,0.2327,0.2327,0.2305,0.2305,0.2306,0.2306,0.2228,0.2226,0.2224,0,0,0,0,0,0,0,0,0,0,0,0,0,0.2393,0.2393,0.2361,0.2361,0.2361,0.2328,0.2327,0.2326,0.2305,0.2305,0.2306,0.2306,0.2229,0.2226,0.2223,0,0,0,0,0,0,0,0,0,0,0,0,0,0.2369,0.2393,0.2361,0.2348,0.2347,0.2328,0.2327,0.2326,0.2305,0.2305,0.2306,0.2306,0.2229,0.2226,0.2223,0.22,0,0,0.2213,0.2212,0,0,0,0,0,0,0,0,0.2371,0.2368,0.235,0.2349,0.2347,0.2323,0.231,0.2283,0.2305,0.2318,0.2306,0.2306,0.2257,0.2252,0.2242,0.2197,0.2193,0.2213,0.2211,0.221,0.2209,0,0,0,0,0,0,0,0.2372,0.2369,0.2345,0.235,0.2348,0.2339,0.2336,0.2305,0.2285,0.2317,0.2316,0.2316,0.2256,0.2245,0.224,0.2192,0.2213,0.221,0.2208,0.2207,0.2107,0.2106,0,0,0,0,0,0,0.2382,0.2371,0.2347,0.2345,0.2362,0.2339,0.2335,0.2329,0.2286,0.2281,0.2316,0.2316,0.2251,0.2244,0.2237,0.22,0.221,0.2207,0.2205,0.2107,0.2107,0.2106,0,0,0,0,0,0,0.2382,0.238,0.2348,0.2359,0.2355,0.2339,0.2331,0.2328,0.2317,0.2286,0.2279,0.2309,0.2251,0.2242,0.2216,0.2197,0.2205,0.2202,0.2108,0.2107,0.2106,0.2129,0,0,0,0,0,0,0.2383,0.238,0.2372,0.236,0.2355,0.2332,0.2331,0.2327,0.2318,0.2317,0.2278,0.2271,0.225,0.2221,0.2213,0.2193,0.22,0.2109,0.2108,0.2106,0.213,0.2129,0.2129,0,0,0,0,0,0.2385,0.237,0.2372,0.2369,0.2346,0.2331,0.2327,0.2315,0.2318,0.2307,0.2292,0.2272,0.2206,0.2219,0.2209,0.2187,0.211,0.2108,0.2107,0.213,0.2129,0.2129,0,0,0,0,0,0,0.2369,0.2366,0.2368,0.235,0.2343,0.2329,0.2316,0.2315,0.2295,0.2293,0.227,0.2261,0.223,0.2206,0.222,0.2153,0.2151,0.2148,0.2172,0.2171,0.2171,0.2168,0.2197,0,0,0,0,0,0.2366,0.236,0.2355,0.234,0.2337,0.2329,0.2321,0.2316,0.2301,0.2292,0.2271,0.2242,0.2214,0.2194,0.2165,0.213,0.2119,0.2107,0.2107,0.2107,0.2097,0.2074,0.2071,0.21,0.21,0.21,0,0,0.2351,0.2354,0.2345,0.2338,0.233,0.2313,0.2323,0.2309,0.2293,0.2286,0.2254,0.2243,0.2207,0.2173,0.2154,0.215,0.2095,0.2105,0.2105,0.2095,0.2072,0.207,0.2067,0.2099,0.21,0.21,0,0,0.2323,0.2325,0.2311,0.2307,0.2304,0.23,0.2298,0.2287,0.2279,0.2256,0.2248,0.2232,0.2182,0.216,0.2141,0.2119,0.21,0.2103,0.2091,0.207,0.2068,0.2066,0.2067,0.2064,0.2096,0.2096,0.2096,0,0.2303,0.2289,0.2302,0.2291,0.2281,0.2294,0.2271,0.2264,0.2246,0.2236,0.2244,0.2194,0.2173,0.2133,0.2129,0.2117,0.211,0.21,0.2072,0.2069,0.2066,0.2067,0.2064,0.2097,0.2097,0.2097,0.2097,0,0.2267,0.2255,0.2246,0.2238,0.2231,0.2214,0.2214,0.2205,0.2206,0.22,0.2175,0.2164,0.2132,0.2125,0.2119,0.2085,0.209,0.2083,0.2078,0.2065,0.2067,0.2063,0.2099,0.2098,0.2098,0.2098,0,0,0.2204,0.2218,0.2209,0.2204,0.2202,0.2191,0.2173,0.2154,0.2141,0.2138,0.2114,0.2093,0.2103,0.2082,0.2081,0.2067,0.2057,0.2066,0.2065,0.2076,0.2025,0.1889,0.1872,0.2047,0.2046,0.2045,0.2042,0,0.2163,0.2142,0.2156,0.2122,0.2108,0.2121,0.2103,0.2095,0.2094,0.2077,0.208,0.2058,0.2081,0.2072,0.2064,0.2044,0.2045,0.2059,0.2026,0.2025,0.1912,0.1861,0.1748,0.1721,0.2038,0.2038,0.2037,0,0.2107,0.2107,0.2075,0.2074,0.2067,0.2051,0.2032,0.2019,0.2012,0.2011,0.2009,0.2016,0.1995,0.2024,0.2,0.2007,0.202,0.2021,0.202,0.1876,0.1879,0.1779,0.1703,0.1585,0.2032,0.2032,0.2033,0,0.2054,0.2042,0.2019,0.2016,0.2017,0.2003,0.1999,0.1993,0.1981,0.197,0.1965,0.1955,0.194,0.1946,0.1954,0.1972,0.1933,0.1955,0.1859,0.1852,0.1735,0.1717,0.1541,0.1955,0.1955,0.1955,0.1955,0,0.1997,0.1974,0.1995,0.1979,0.195,0.1964,0.1934,0.1932,0.1926,0.1907,0.193,0.1915,0.1918,0.1905,0.1929,0.1857,0.1911,0.1834,0.1821,0.174,0.1722,0.1598,0.1606,0.1955,0.1955,0.1955,0.1955,0,0.1934,0.1946,0.1922,0.1926,0.1924,0.1901,0.1898,0.1881,0.1885,0.1861,0.1856,0.1858,0.1834,0.1848,0.184,0.1793,0.1684,0.1749,0.1655,0.1627,0.1369,0.1385,0.1231,0.1216,0.1606,0.1602,0.1599,0,0.1896,0.1882,0.1882,0.1868,0.1867,0.1849,0.1838,0.1849,0.1844,0.1829,0.1816,0.179,0.1763,0.1682,0.1629,0.16,0.1591,0.1424,0.1415,0.1297,0.131,0.1331,0.1336,0.1304,0.1298,0.1294,0.1291,0,0.183,0.1837,0.1828,0.1809,0.1794,0.1783,0.1779,0.1777,0.1789,0.1777,0.1756,0.1725,0.1637,0.1525,0.1432,0.1379,0.1289,0.1327,0.123,0.105,0.1041,0.104,0.1395,0.1252,0.1256,0.1259,0.1261,0.1262,0.1778,0.1766,0.1766,0.1745,0.1728,0.1723,0.1725,0.1733,0.1727,0.1695,0.1685,0.1588,0.1406,0.1259,0.1191,0.089,0.1067,0.0791,0.0828,0.0865,0.0798,0.1051,0.0863,0.0865,0.0866,0.0867,0.0869,0,0.171,0.1718,0.1701,0.1684,0.1665,0.1674,0.1686,0.1689,0.1691,0.1599,0.1557,0.1302,0.1072,0.0879,0.0553,0.0405,0.0442,0.0333,0.0355,0.0397,0.0615,0.054,0.0241,0.0241,0.0241,0.0241,0.0241,0.0241,0.1671,0.1647,0.1655,0.1626,0.1623,0.1612,0.1629,0.1626,0.1574,0.14,0.1229,0.1114,0.0784,0.0335,-0.0016,-0.0045,-0.0024,-0.0039,0.0043,0.0182,0.0229,0.0274,0.0198,-0.0168,-0.0168,-0.0208,-0.0209,-0.0209]},{"header":{"parameterUnit":"m.s-1","parameterCategory":2,"la1":30.2991,"la2":30.254,"lo1":-89.0895,"lo2":-89.0444,"dy":0.0017,"dx":0.0017,"nx":28,"ny":28,"refTime":"2026-02-02T03:00:00:Z","depth":"0","parameterNumber":3,"parameterNumberName":"V-component_of_CURRENTS"},"data":[0,0,0,0,0,0,0,0,0,0,0,0,0,0,0,0,0,0,0,0,0,0,0,0,0,0,0,0,0,0,0,0,0,0,0,0,0,0,0,0,0,0,0,0,0,0,0,0,0,0,0,0,0,0,0,0,0,0,-0.2352,-0.2352,0,-0.2345,-0.2344,-0.2344,-0.2285,-0.2284,-0.2283,-0.2282,-0.2216,-0.2215,-0.2215,0,0,0,0,0,0,0,0,0,0,0,0,0,-0.2296,-0.2298,-0.2352,-0.2352,-0.2353,-0.2345,-0.2344,-0.2344,-0.2285,-0.2284,-0.2282,-0.2281,-0.2216,-0.2215,-0.2214,0,0,0,0,0,0,0,0,0,0,0,0,0,-0.2305,-0.2298,-0.2352,-0.2325,-0.2323,-0.2345,-0.2344,-0.2344,-0.2285,-0.2284,-0.2282,-0.228,-0.2216,-0.2215,-0.2214,-0.2242,0,0,-0.2211,-0.2211,0,0,0,0,0,0,0,0,-0.2304,-0.2306,-0.2329,-0.2327,-0.2325,-0.2317,-0.2301,-0.2308,-0.2286,-0.2296,-0.2282,-0.228,-0.2248,-0.2244,-0.2242,-0.2239,-0.2236,-0.2211,-0.221,-0.221,-0.221,0,0,0,0,0,0,0,-0.2304,-0.2306,-0.2345,-0.2329,-0.2327,-0.2307,-0.2306,-0.2302,-0.2278,-0.2295,-0.2291,-0.2297,-0.2246,-0.2243,-0.224,-0.2235,-0.2211,-0.221,-0.2209,-0.2209,-0.2176,-0.2176,0,0,0,0,0,0,-0.2315,-0.2306,-0.2346,-0.2346,-0.2314,-0.231,-0.2308,-0.2318,-0.2279,-0.2273,-0.2298,-0.2294,-0.2246,-0.2241,-0.2238,-0.2243,-0.221,-0.2209,-0.2208,-0.2177,-0.2176,-0.2176,0,0,0,0,0,0,-0.2314,-0.2319,-0.2346,-0.2328,-0.233,-0.2313,-0.2324,-0.2319,-0.2316,-0.2283,-0.2274,-0.2301,-0.2245,-0.2239,-0.2234,-0.2241,-0.2208,-0.2208,-0.2177,-0.2176,-0.2176,-0.227,0,0,0,0,0,0,-0.2313,-0.2319,-0.2334,-0.2329,-0.2332,-0.2371,-0.2326,-0.232,-0.2324,-0.2318,-0.2283,-0.2275,-0.2243,-0.2236,-0.2233,-0.2239,-0.2207,-0.2177,-0.2177,-0.2176,-0.2267,-0.2273,-0.2278,0,0,0,0,0,-0.2311,-0.2347,-0.2335,-0.234,-0.2352,-0.2373,-0.2373,-0.2351,-0.2326,-0.2339,-0.2306,-0.2276,-0.2229,-0.2237,-0.2233,-0.2238,-0.2177,-0.2177,-0.2176,-0.2265,-0.2272,-0.2278,0,0,0,0,0,0,-0.2348,-0.2345,-0.2331,-0.2368,-0.2373,-0.2364,-0.2383,-0.2362,-0.2348,-0.2339,-0.2293,-0.2284,-0.2276,-0.2245,-0.2253,-0.2221,-0.2191,-0.219,-0.2259,-0.2266,-0.2271,-0.2281,-0.2206,0,0,0,0,0,-0.2361,-0.2379,-0.2374,-0.2409,-0.2413,-0.2397,-0.2403,-0.2388,-0.2376,-0.2367,-0.234,-0.2301,-0.2273,-0.2261,-0.2236,-0.2238,-0.2111,-0.2229,-0.2234,-0.2239,-0.2241,-0.2068,-0.2058,-0.2174,-0.2174,-0.2174,0,0,-0.2388,-0.239,-0.2402,-0.2417,-0.2418,-0.2432,-0.2396,-0.2417,-0.2419,-0.2365,-0.2364,-0.2329,-0.2278,-0.2269,-0.2261,-0.2245,-0.2125,-0.2239,-0.2244,-0.2243,-0.2066,-0.2055,-0.2044,-0.2174,-0.2174,-0.2174,0,0,-0.245,-0.2452,-0.248,-0.2482,-0.2488,-0.2476,-0.2484,-0.2476,-0.2462,-0.2463,-0.2411,-0.2383,-0.2353,-0.2312,-0.2287,-0.2307,-0.2162,-0.2292,-0.2331,-0.2163,-0.2152,-0.2141,-0.1904,-0.1871,-0.2293,-0.2293,-0.2293,0,-0.248,-0.2509,-0.2496,-0.2519,-0.2523,-0.2497,-0.252,-0.2513,-0.2501,-0.2492,-0.247,-0.2401,-0.2368,-0.2335,-0.2339,-0.2321,-0.2171,-0.2319,-0.2169,-0.2156,-0.2142,-0.1903,-0.1865,-0.2297,-0.2297,-0.2296,-0.2296,0,-0.2552,-0.2569,-0.2593,-0.2598,-0.2604,-0.2628,-0.2607,-0.2609,-0.2584,-0.2562,-0.2531,-0.2478,-0.2432,-0.2413,-0.2388,-0.2295,-0.2195,-0.2197,-0.2155,-0.2136,-0.1884,-0.1843,-0.2304,-0.2302,-0.2301,-0.23,0,0,-0.2625,-0.2637,-0.2641,-0.2643,-0.2641,-0.2653,-0.2664,-0.2659,-0.2657,-0.2625,-0.2607,-0.2556,-0.252,-0.2487,-0.2439,-0.2308,-0.2077,-0.2222,-0.221,-0.1989,-0.1625,-0.1586,-0.1535,-0.2042,-0.2037,-0.2033,-0.1465,0,-0.2678,-0.2726,-0.2713,-0.2745,-0.2761,-0.2732,-0.274,-0.2728,-0.2707,-0.2688,-0.2617,-0.2586,-0.2548,-0.2525,-0.2394,-0.2211,-0.1983,-0.2226,-0.1675,-0.1658,-0.1628,-0.1494,-0.1488,-0.0986,-0.1424,-0.1417,-0.1412,0,-0.2741,-0.2759,-0.2801,-0.2796,-0.28,-0.2812,-0.2806,-0.2807,-0.2774,-0.2752,-0.2709,-0.2659,-0.2542,-0.2478,-0.2082,-0.2237,-0.1911,-0.1714,-0.1687,-0.1598,-0.1545,-0.1087,-0.0894,-0.0824,-0.1347,-0.1352,-0.1357,0,-0.2788,-0.2812,-0.2843,-0.2845,-0.2845,-0.2852,-0.2847,-0.2831,-0.2823,-0.2791,-0.2776,-0.2647,-0.2573,-0.2232,-0.1902,-0.1951,-0.1394,-0.1405,-0.1006,-0.0996,-0.0859,-0.0849,-0.0545,-0.0969,-0.097,-0.0972,-0.0973,0,-0.2841,-0.2862,-0.2866,-0.2884,-0.2906,-0.2888,-0.2903,-0.2894,-0.2865,-0.2853,-0.2807,-0.2772,-0.2501,-0.2212,-0.1854,-0.1332,-0.1325,-0.0957,-0.0847,-0.0888,-0.0887,-0.072,-0.0768,-0.095,-0.0955,-0.0959,-0.0963,0,-0.2887,-0.2893,-0.2924,-0.2931,-0.2932,-0.2946,-0.2932,-0.2937,-0.2914,-0.2894,-0.2884,-0.2805,-0.2472,-0.2105,-0.1549,-0.1264,-0.0687,-0.053,-0.0583,-0.0494,-0.0161,-0.0217,0.0228,0.0298,-0.0012,-0.0007,-0.0004,0,-0.2916,-0.2941,-0.2961,-0.2969,-0.2973,-0.2982,-0.2986,-0.2964,-0.2963,-0.2913,-0.2901,-0.2653,-0.2505,-0.1739,-0.1184,-0.0484,-0.0405,-0.0019,-0.0138,-0.0097,-0.0074,-0.0125,-0.0107,0.0077,0.0081,0.0085,0.0087,0,-0.2963,-0.2972,-0.2994,-0.3015,-0.3024,-0.3025,-0.3027,-0.3032,-0.2999,-0.2981,-0.2932,-0.2829,-0.2197,-0.1609,-0.076,-0.0332,-0.0081,0.007,0.0142,0.0045,-0.0011,0.009,-0.0311,0.0116,0.0113,0.0111,0.011,0.0109,-0.2992,-0.3012,-0.3034,-0.3049,-0.3057,-0.3055,-0.3053,-0.3051,-0.3039,-0.2953,-0.2911,-0.2635,-0.1923,-0.0836,-0.0444,0.0325,0.0251,0.0546,0.0509,0.0484,0.0412,0.0077,0.0553,0.0553,0.0553,0.0552,0.0552,0,-0.3013,-0.3029,-0.3055,-0.3068,-0.3072,-0.3067,-0.3064,-0.3034,-0.3016,-0.2849,-0.2756,-0.1961,-0.1243,-0.0512,0.0504,0.0762,0.077,0.0857,0.0776,0.0803,0.0593,0.0443,0.0874,0.0874,0.0874,0.0874,0.0874,0.0874,-0.3019,-0.3039,-0.3048,-0.3058,-0.3068,-0.3042,-0.303,-0.2981,-0.2844,-0.2411,-0.1941,-0.1604,-0.0723,0.0235,0.0925,0.101,0.107,0.1055,0.1112,0.0893,0.0859,0.0826,0.0678,0.1151,0.1151,0.1322,0.1324,0.1325]}],[{"header":{"parameterUnit":"m.s-1","parameterCategory":2,"la1":30.2991,"la2":30.254,"lo1":-89.0895,"lo2":-89.0444,"dy":0.0017,"dx":0.0017,"nx":28,"ny":28,"refTime":"2026-02-02T03:00:00:Z","depth":"2","parameterNumber":2,"parameterNumberName":"U-component_of_CURRENTS"},"data":[0,0,0,0,0,0,0,0,0,0,0,0,0,0,0,0,0,0,0,0,0,0,0,0,0,0,0,0,0,0,0,0,0,0,0,0,0,0,0,0,0,0,0,0,0,0,0,0,0,0,0,0,0,0,0,0,0,0,-0.0879,-0.0878,0,-0.0793,-0.0792,-0.0791,-0.0773,-0.0774,-0.0774,-0.0775,-0.0652,-0.0648,-0.0644,0,0,0,0,0,0,0,0,0,0,0,0,0,-0.093,-0.093,-0.0879,-0.0878,-0.0877,-0.0794,-0.0792,-0.0791,-0.0773,-0.0774,-0.0775,-0.0776,-0.0654,-0.0649,-0.0644,0,0,0,0,0,0,0,0,0,0,0,0,0,-0.0881,-0.093,-0.0879,-0.086,-0.0857,-0.0794,-0.0792,-0.079,-0.0772,-0.0774,-0.0775,-0.0776,-0.0655,-0.0649,-0.0643,-0.058,0,0,-0.0625,-0.0622,0,0,0,0,0,0,0,0,-0.0883,-0.0878,-0.0863,-0.0861,-0.0858,-0.0797,-0.0765,-0.0719,-0.0772,-0.0802,-0.0775,-0.0777,-0.0698,-0.0689,-0.0666,-0.0574,-0.0569,-0.0624,-0.062,-0.0618,-0.0616,0,0,0,0,0,0,0,-0.0887,-0.0881,-0.0842,-0.0862,-0.0859,-0.0823,-0.0818,-0.0756,-0.0741,-0.0799,-0.0798,-0.0793,-0.0696,-0.0672,-0.0663,-0.0567,-0.0624,-0.0619,-0.0615,-0.0613,-0.0267,-0.0262,0,0,0,0,0,0,-0.0906,-0.0885,-0.0845,-0.084,-0.0877,-0.0822,-0.0816,-0.0813,-0.0742,-0.0734,-0.0792,-0.0792,-0.0682,-0.0671,-0.0659,-0.0517,-0.0618,-0.0612,-0.0609,-0.0273,-0.0266,-0.026,0,0,0,0,0,0,-0.0908,-0.0904,-0.0849,-0.0862,-0.0853,-0.082,-0.0817,-0.0811,-0.0782,-0.0738,-0.0728,-0.0769,-0.0683,-0.0668,-0.0571,-0.0515,-0.0609,-0.0604,-0.0279,-0.0271,-0.0263,-0.0273,0,0,0,0,0,0,-0.091,-0.0905,-0.0898,-0.0864,-0.0853,-0.0804,-0.0816,-0.0809,-0.0778,-0.0778,-0.0714,-0.0705,-0.0683,-0.058,-0.0565,-0.0508,-0.0599,-0.0286,-0.0276,-0.0266,-0.0279,-0.0266,-0.0254,0,0,0,0,0,-0.0912,-0.0908,-0.0898,-0.0893,-0.085,-0.0804,-0.0793,-0.0773,-0.0776,-0.0753,-0.0694,-0.0707,-0.0502,-0.0572,-0.0555,-0.0495,-0.0291,-0.0279,-0.0267,-0.0285,-0.0268,-0.0254,0,0,0,0,0,0,-0.0927,-0.0904,-0.0894,-0.0883,-0.0841,-0.0802,-0.078,-0.0763,-0.0699,-0.0697,-0.0657,-0.0641,-0.053,-0.0489,-0.0567,-0.035,-0.0389,-0.0373,-0.0408,-0.0392,-0.038,-0.0448,-0.0594,0,0,0,0,0,-0.0926,-0.0917,-0.0881,-0.0867,-0.0849,-0.0809,-0.0785,-0.0769,-0.0716,-0.0692,-0.0641,-0.0558,-0.0461,-0.0416,-0.0335,-0.0232,-0.0291,-0.0165,-0.0153,-0.0143,-0.0176,-0.0204,-0.0202,-0.022,-0.022,-0.022,0,0,-0.0926,-0.0914,-0.0906,-0.0868,-0.0837,-0.0795,-0.0797,-0.076,-0.0713,-0.0684,-0.0596,-0.0523,-0.0421,-0.0303,-0.0246,-0.0269,-0.0165,-0.0127,-0.0121,-0.0161,-0.0191,-0.0192,-0.0192,-0.0211,-0.0213,-0.0214,0,0,-0.0921,-0.0909,-0.0894,-0.0859,-0.0815,-0.0783,-0.0771,-0.0716,-0.068,-0.0587,-0.0534,-0.0438,-0.03,-0.0221,-0.0161,-0.0021,-0.0101,0.0039,0.0038,0.0013,0.001,0.0007,-0.0091,-0.0103,0.0046,0.0046,0.0046,0,-0.0915,-0.0895,-0.0878,-0.0847,-0.0814,-0.0777,-0.0737,-0.0685,-0.06,-0.0565,-0.0557,-0.035,-0.0266,-0.0128,-0.0064,-0.0004,-0.0064,-0.0047,0.0014,0.0011,0.0008,-0.0092,-0.0106,0.0047,0.0047,0.0047,0.0047,0,-0.0894,-0.0866,-0.0852,-0.08,-0.0762,-0.072,-0.0658,-0.0607,-0.0562,-0.0515,-0.0391,-0.0282,-0.0175,-0.0092,-0.0037,0.0035,-0.0019,0.0015,-0.0063,0.0006,-0.01,-0.0114,0.0049,0.0048,0.0048,0.0048,0,0,-0.0879,-0.0846,-0.0828,-0.0805,-0.0734,-0.0701,-0.0624,-0.0545,-0.0513,-0.0416,-0.0374,-0.0173,-0.0154,-0.008,0.0008,0.0013,-0.0042,0.0004,0.0002,-0.0165,-0.0175,-0.0265,-0.029,-0.0019,-0.002,-0.0021,-0.0255,0,-0.0848,-0.0805,-0.0786,-0.0717,-0.0683,-0.0636,-0.0575,-0.0506,-0.045,-0.0401,-0.0299,-0.0211,-0.0133,-0.0084,-0.0066,-0.0033,-0.0074,0.0012,-0.0154,-0.0161,-0.0308,-0.0305,-0.0134,-0.0331,-0.0269,-0.0271,-0.0273,0,-0.0801,-0.0785,-0.0733,-0.0691,-0.0672,-0.0625,-0.055,-0.0494,-0.0422,-0.0389,-0.0321,-0.0268,-0.0192,-0.0159,-0.0166,-0.0124,-0.0164,-0.017,-0.0178,-0.028,-0.0276,-0.0373,-0.036,-0.0297,-0.0295,-0.0293,-0.0292,0,-0.0781,-0.0731,-0.0697,-0.0674,-0.0625,-0.0591,-0.0552,-0.0483,-0.0445,-0.0392,-0.0389,-0.0318,-0.0288,-0.0309,-0.0296,-0.0249,-0.0381,-0.0315,-0.0458,-0.0468,-0.0365,-0.0364,-0.0391,-0.0391,-0.039,-0.039,-0.0389,0,-0.0739,-0.0699,-0.0688,-0.0664,-0.0622,-0.0591,-0.0541,-0.05,-0.0466,-0.0441,-0.0388,-0.0387,-0.0326,-0.037,-0.0377,-0.0487,-0.0457,-0.0505,-0.0533,-0.036,-0.0355,-0.0338,-0.0329,-0.0398,-0.0396,-0.0395,-0.0393,0,-0.0697,-0.069,-0.0656,-0.0627,-0.0608,-0.0577,-0.0533,-0.0505,-0.0487,-0.047,-0.0459,-0.0454,-0.052,-0.0521,-0.0577,-0.0601,-0.0681,-0.0736,-0.0582,-0.0588,-0.0748,-0.0735,-0.0942,-0.0947,-0.0951,-0.0955,-0.0958,0,-0.0673,-0.0653,-0.0631,-0.0616,-0.0594,-0.0554,-0.0521,-0.0495,-0.0483,-0.0514,-0.0519,-0.0585,-0.0649,-0.0813,-0.0787,-0.0889,-0.0858,-0.0866,-0.0723,-0.0798,-0.0804,-0.0784,-0.0765,-0.0595,-0.0595,-0.0595,-0.0594,0,-0.0625,-0.0621,-0.0608,-0.059,-0.0558,-0.0522,-0.049,-0.0491,-0.0484,-0.0523,-0.0599,-0.0676,-0.0784,-0.0794,-0.0928,-0.0953,-0.0825,-0.0876,-0.0977,-0.0489,-0.0491,-0.049,-0.0479,-0.0593,-0.0593,-0.0593,-0.0593,-0.0593,-0.0588,-0.0576,-0.0571,-0.056,-0.0522,-0.0483,-0.0449,-0.0467,-0.0493,-0.0561,-0.0653,-0.0763,-0.0801,-0.0927,-0.0908,-0.0843,-0.092,-0.087,-0.086,-0.0853,-0.0779,-0.0788,-0.0937,-0.0939,-0.0941,-0.0942,-0.0944,0,-0.054,-0.0538,-0.0533,-0.0511,-0.0464,-0.0443,-0.0417,-0.0412,-0.0455,-0.0584,-0.0686,-0.076,-0.0795,-0.0804,-0.0658,-0.0707,-0.0587,-0.0713,-0.0486,-0.0491,-0.0495,-0.039,-0.0452,-0.045,-0.0449,-0.0448,0,0,-0.0513,-0.0488,-0.0509,-0.0454,-0.042,-0.034,-0.0308,-0.0372,-0.0443,-0.06,-0.0687,-0.0838,-0.084,-0.0672,-0.0618,-0.0483,-0.0487,-0.0474,-0.0865,-0.0603,-0.0605,-0.0586,-0.0435,0,0,0,0,0]},{"header":{"parameterUnit":"m.s-1","parameterCategory":2,"la1":30.2991,"la2":30.254,"lo1":-89.0895,"lo2":-89.0444,"dy":0.0017,"dx":0.0017,"nx":28,"ny":28,"refTime":"2026-02-02T03:00:00:Z","depth":"2","parameterNumber":3,"parameterNumberName":"V-component_of_CURRENTS"},"data":[0,0,0,0,0,0,0,0,0,0,0,0,0,0,0,0,0,0,0,0,0,0,0,0,0,0,0,0,0,0,0,0,0,0,0,0,0,0,0,0,0,0,0,0,0,0,0,0,0,0,0,0,0,0,0,0,0,0,0.0956,0.0956,0,0.0913,0.0912,0.0912,0.0838,0.0837,0.0835,0.0834,0.0795,0.0796,0.0796,0,0,0,0,0,0,0,0,0,0,0,0,0,0.0972,0.0972,0.0956,0.0956,0.0955,0.0913,0.0912,0.0912,0.0838,0.0836,0.0835,0.0833,0.0795,0.0796,0.0796,0,0,0,0,0,0,0,0,0,0,0,0,0,0.0952,0.0973,0.0956,0.0913,0.0908,0.0913,0.0912,0.0912,0.0839,0.0836,0.0834,0.0832,0.0795,0.0796,0.0796,0.0843,0,0,0.0798,0.0798,0,0,0,0,0,0,0,0,0.0953,0.0951,0.092,0.0916,0.0911,0.0878,0.0904,0.0889,0.0839,0.0866,0.0834,0.0831,0.0825,0.0822,0.082,0.0841,0.084,0.0798,0.0798,0.0798,0.0798,0,0,0,0,0,0,0,0.0954,0.0953,0.094,0.0919,0.0914,0.0894,0.0889,0.09,0.0859,0.0864,0.0858,0.0852,0.0822,0.082,0.0819,0.0839,0.0798,0.0798,0.0798,0.0799,0.0922,0.0925,0,0,0,0,0,0,0.0961,0.0954,0.0941,0.0939,0.0926,0.0895,0.0889,0.0891,0.0858,0.0851,0.0854,0.0849,0.082,0.0818,0.0817,0.0874,0.0798,0.0799,0.0799,0.0919,0.0922,0.0926,0,0,0,0,0,0,0.0962,0.0961,0.0943,0.0944,0.094,0.0897,0.09,0.0892,0.0868,0.0851,0.0843,0.0837,0.0818,0.0816,0.0839,0.0871,0.0799,0.0799,0.0915,0.092,0.0924,0.0985,0,0,0,0,0,0,0.0962,0.0961,0.0959,0.0945,0.094,0.0952,0.0902,0.0892,0.0869,0.0861,0.0835,0.0829,0.0817,0.0838,0.0839,0.0871,0.08,0.0911,0.0917,0.0923,0.098,0.0991,0.1002,0,0,0,0,0,0.0963,0.098,0.0959,0.0957,0.0941,0.0953,0.095,0.0912,0.087,0.0878,0.0865,0.0829,0.0874,0.0841,0.0842,0.0874,0.0909,0.0916,0.0922,0.0975,0.0989,0.1001,0,0,0,0,0,0,0.0987,0.0974,0.0951,0.0961,0.0956,0.094,0.0936,0.091,0.0904,0.0885,0.0862,0.0859,0.0896,0.0886,0.085,0.0932,0.0889,0.0896,0.0929,0.0942,0.0953,0.0934,0.08,0,0,0,0,0,0.0992,0.0997,0.0984,0.0991,0.0987,0.0957,0.0951,0.0928,0.0922,0.0913,0.0895,0.0896,0.0931,0.0932,0.0953,0.099,0.0943,0.1017,0.1028,0.1037,0.1027,0.0983,0.0987,0.0947,0.0947,0.0947,0,0,0.0999,0.0995,0.0993,0.0995,0.098,0.0993,0.0948,0.0942,0.0958,0.0914,0.0925,0.0931,0.0952,0.1001,0.1016,0.0988,0.1031,0.1046,0.1053,0.1037,0.099,0.0993,0.0996,0.0952,0.0951,0.095,0,0,0.1027,0.1013,0.1024,0.1027,0.1013,0.1009,0.1007,0.0988,0.0982,0.1003,0.0992,0.1015,0.1037,0.1068,0.1088,0.1174,0.1094,0.1184,0.1213,0.1171,0.1172,0.1173,0.1129,0.1125,0.1183,0.1183,0.1183,0,0.1022,0.1041,0.1031,0.1047,0.1045,0.1018,0.1031,0.1046,0.1038,0.1045,0.1012,0.106,0.1074,0.1149,0.1184,0.1196,0.1145,0.1155,0.1179,0.1179,0.1178,0.1133,0.1127,0.1187,0.1186,0.1186,0.1186,0,0.1066,0.1069,0.1079,0.1088,0.1099,0.1104,0.1119,0.1128,0.1107,0.111,0.115,0.1166,0.1181,0.1215,0.1225,0.1257,0.1215,0.1196,0.1131,0.1184,0.1136,0.1129,0.1192,0.1191,0.119,0.1189,0,0,0.105,0.1095,0.1087,0.1091,0.1111,0.1118,0.1168,0.1198,0.1207,0.1215,0.1223,0.1303,0.1271,0.1294,0.1306,0.1288,0.1259,0.1236,0.1232,0.1166,0.1145,0.1095,0.1082,0.1221,0.122,0.1219,0.1116,0,0.1063,0.1098,0.1124,0.1147,0.1157,0.1169,0.1212,0.1241,0.1254,0.1264,0.1292,0.1305,0.1318,0.1305,0.1299,0.1281,0.1241,0.1288,0.1126,0.1122,0.1047,0.1073,0.0998,0.0897,0.1109,0.1107,0.1106,0,0.1072,0.1095,0.1117,0.1155,0.1158,0.1169,0.1199,0.1236,0.1282,0.1287,0.1306,0.1309,0.1339,0.1299,0.1266,0.1284,0.121,0.1176,0.117,0.1089,0.1058,0.0879,0.0875,0.1094,0.1095,0.1096,0.1097,0,0.1035,0.108,0.1091,0.1101,0.1149,0.115,0.1167,0.1216,0.124,0.1272,0.1269,0.1306,0.1291,0.1237,0.1209,0.1207,0.1129,0.1115,0.0996,0.0991,0.0881,0.0868,0.1027,0.1027,0.1028,0.1028,0.1028,0,0.1029,0.1027,0.1058,0.1055,0.1059,0.1098,0.1099,0.1139,0.1171,0.1191,0.1245,0.1257,0.126,0.1239,0.119,0.1089,0.1107,0.0992,0.0958,0.0906,0.0897,0.103,0.1032,0.1024,0.1025,0.1026,0.1026,0,0.0972,0.1002,0.1001,0.1029,0.1032,0.1016,0.1037,0.1053,0.1088,0.1107,0.1108,0.1195,0.1181,0.1182,0.1108,0.105,0.0969,0.0908,0.0856,0.0817,0.0855,0.0862,0.0754,0.0751,0.0749,0.0747,0.0745,0,0.0957,0.0947,0.0947,0.0948,0.0944,0.0934,0.094,0.0986,0.1003,0.1071,0.1076,0.1096,0.1125,0.1044,0.0922,0.0807,0.0891,0.0678,0.0668,0.0848,0.0826,0.0836,0.0846,0.055,0.0547,0.0544,0.0542,0,0.0913,0.0886,0.0882,0.0879,0.0868,0.0886,0.0887,0.0882,0.0939,0.0981,0.1036,0.1064,0.0972,0.0861,0.0723,0.0651,0.0706,0.0619,0.0801,0.0642,0.065,0.0631,0.0648,0.052,0.0522,0.0524,0.0525,0.0526,0.0855,0.0819,0.0807,0.0809,0.0819,0.0832,0.0829,0.0835,0.0863,0.0923,0.0967,0.098,0.0861,0.0635,0.0547,0.0454,0.0462,0.0448,0.0458,0.047,0.0476,0.048,0.0319,0.032,0.0321,0.0322,0.0322,0,0.0804,0.0766,0.076,0.0772,0.0817,0.0809,0.081,0.0783,0.078,0.0856,0.0898,0.0769,0.0639,0.0567,0.0327,0.0215,0.0239,0.0269,0.0311,0.0329,0.0347,0.0352,0.0159,0.016,0.016,0.016,0,0,0.0774,0.0699,0.069,0.0747,0.0793,0.0803,0.0789,0.0743,0.0732,0.0745,0.0775,0.0761,0.0599,0.0425,0.0299,0.0223,0.0319,0.0228,0.0347,0.0422,0.0442,0.0414,0.0436,0,0,0,0,0]}],[{"header":{"parameterUnit":"m.s-1","parameterCategory":2,"la1":30.2991,"la2":30.254,"lo1":-89.0895,"lo2":-89.0444,"dy":0.0017,"dx":0.0017,"nx":28,"ny":28,"refTime":"2026-02-02T03:00:00:Z","depth":"4","parameterNumber":2,"parameterNumberName":"U-component_of_CURRENTS"},"data":[0,0,0,0,0,0,0,0,0,0,0,0,0,0,0,0,0,0,0,0,0,0,0,0,0,0,0,0,0,0,0,0,0,0,0,0,0,0,0,0,0,0,0,0,0,0,0,0,0,0,0,0,0,0,0,0,0,0,-0.086,-0.086,0,-0.0866,-0.0866,-0.0866,-0.0876,-0.0877,-0.0877,-0.0877,-0.0917,-0.0918,-0.0919,0,0,0,0,0,0,0,0,0,0,0,0,0,-0.0861,-0.0861,-0.086,-0.086,-0.086,-0.0866,-0.0866,-0.0866,-0.0876,-0.0877,-0.0877,-0.0877,-0.0917,-0.0918,-0.0919,0,0,0,0,0,0,0,0,0,0,0,0,0,-0.0863,-0.0861,-0.086,-0.0866,-0.0867,-0.0866,-0.0866,-0.0866,-0.0876,-0.0877,-0.0877,-0.0877,-0.0917,-0.0918,-0.0919,-0.0921,0,0,-0.0923,-0.0924,0,0,0,0,0,0,0,0,-0.0863,-0.0863,-0.0865,-0.0866,-0.0867,-0.0871,-0.0881,-0.0886,-0.0876,-0.0873,-0.0877,-0.0877,-0.0905,-0.0907,-0.0907,-0.0923,-0.0924,-0.0923,-0.0924,-0.0925,-0.0925,0,0,0,0,0,0,0,-0.0862,-0.0863,-0.0862,-0.0865,-0.0866,-0.087,-0.087,-0.0882,-0.0887,-0.0873,-0.0874,-0.0874,-0.0905,-0.0905,-0.0908,-0.0925,-0.0923,-0.0924,-0.0925,-0.0926,-0.1055,-0.1058,0,0,0,0,0,0,-0.0861,-0.0862,-0.0862,-0.0862,-0.0866,-0.0869,-0.087,-0.0869,-0.0887,-0.0889,-0.0874,-0.0875,-0.0903,-0.0906,-0.0909,-0.1001,-0.0925,-0.0926,-0.0927,-0.1053,-0.1056,-0.1059,0,0,0,0,0,0,-0.0861,-0.0861,-0.0862,-0.0863,-0.0863,-0.0869,-0.0868,-0.0869,-0.0882,-0.0887,-0.0891,-0.0887,-0.0903,-0.0908,-0.0936,-0.0999,-0.0927,-0.0928,-0.105,-0.1054,-0.1057,-0.1127,0,0,0,0,0,0,-0.0861,-0.0861,-0.0867,-0.0863,-0.0863,-0.0868,-0.0868,-0.0869,-0.0881,-0.0882,-0.0899,-0.0902,-0.0904,-0.0935,-0.0938,-0.1,-0.0929,-0.1046,-0.1051,-0.1056,-0.1122,-0.1133,-0.1143,0,0,0,0,0,-0.0861,-0.0867,-0.0867,-0.0868,-0.0868,-0.0868,-0.0869,-0.0874,-0.0881,-0.0887,-0.0905,-0.0902,-0.097,-0.0936,-0.094,-0.1004,-0.1044,-0.105,-0.1056,-0.1117,-0.1131,-0.1143,0,0,0,0,0,0,-0.0873,-0.0868,-0.0869,-0.0874,-0.0874,-0.087,-0.0879,-0.0881,-0.0899,-0.0911,-0.0915,-0.0919,-0.0969,-0.0976,-0.094,-0.106,-0.1016,-0.1023,-0.1061,-0.1074,-0.1085,-0.1065,-0.093,0,0,0,0,0,-0.0877,-0.0879,-0.0875,-0.088,-0.0883,-0.0884,-0.0888,-0.0892,-0.0903,-0.0911,-0.0928,-0.0961,-0.0995,-0.1023,-0.104,-0.1098,-0.1075,-0.115,-0.1161,-0.117,-0.1159,-0.1186,-0.1197,-0.1079,-0.1078,-0.1078,0,0,-0.0881,-0.0881,-0.0882,-0.0883,-0.0886,-0.0891,-0.0888,-0.09,-0.0915,-0.0914,-0.0953,-0.0983,-0.1013,-0.1076,-0.1104,-0.1094,-0.1191,-0.1177,-0.1185,-0.1168,-0.1193,-0.1204,-0.1214,-0.1083,-0.1082,-0.1081,0,0,-0.0887,-0.0894,-0.0895,-0.09,-0.0909,-0.0909,-0.0915,-0.0927,-0.0944,-0.0982,-0.0996,-0.1059,-0.1106,-0.1149,-0.1175,-0.1256,-0.1231,-0.1285,-0.1341,-0.1369,-0.1378,-0.1385,-0.1358,-0.1363,-0.131,-0.131,-0.131,0,-0.0893,-0.0895,-0.0897,-0.0904,-0.0916,-0.0918,-0.0931,-0.0943,-0.0967,-0.1001,-0.1005,-0.111,-0.1142,-0.1224,-0.1271,-0.128,-0.1269,-0.1286,-0.138,-0.1387,-0.1393,-0.1364,-0.1368,-0.1314,-0.1314,-0.1314,-0.1313,0,-0.0894,-0.0906,-0.0912,-0.092,-0.0934,-0.0946,-0.0963,-0.0988,-0.1021,-0.1054,-0.1139,-0.1184,-0.1257,-0.1297,-0.1313,-0.1402,-0.1367,-0.1371,-0.1338,-0.1409,-0.1374,-0.1377,-0.132,-0.1319,-0.1318,-0.1317,0,0,-0.0877,-0.0905,-0.0909,-0.0919,-0.0949,-0.0953,-0.0993,-0.1035,-0.1079,-0.1131,-0.1201,-0.1295,-0.1342,-0.1374,-0.1415,-0.1457,-0.1508,-0.145,-0.145,-0.1406,-0.1532,-0.1416,-0.1407,-0.1533,-0.1534,-0.1535,-0.1482,0,-0.0877,-0.0896,-0.0916,-0.0937,-0.0949,-0.098,-0.1024,-0.1072,-0.1127,-0.1196,-0.1268,-0.135,-0.1364,-0.1429,-0.1472,-0.1509,-0.1522,-0.1519,-0.1483,-0.1481,-0.1356,-0.1409,-0.154,-0.1484,-0.1485,-0.1485,-0.1485,0,-0.0864,-0.0883,-0.0916,-0.0959,-0.097,-0.0996,-0.107,-0.1116,-0.1216,-0.1267,-0.1355,-0.1406,-0.1502,-0.1493,-0.1554,-0.1555,-0.1543,-0.1545,-0.1544,-0.1408,-0.1371,-0.1404,-0.149,-0.149,-0.1489,-0.1489,-0.1489,0,-0.0839,-0.0875,-0.0905,-0.0919,-0.0978,-0.1014,-0.1061,-0.1159,-0.1212,-0.1329,-0.1373,-0.1477,-0.1536,-0.1557,-0.1579,-0.1582,-0.16,-0.1603,-0.146,-0.145,-0.1535,-0.1528,-0.1601,-0.1601,-0.1601,-0.1601,-0.1601,0,-0.0817,-0.0837,-0.0901,-0.0911,-0.0978,-0.1027,-0.1113,-0.1173,-0.1269,-0.1328,-0.1423,-0.1456,-0.1558,-0.1582,-0.1584,-0.1527,-0.1603,-0.1456,-0.1437,-0.1565,-0.1562,-0.1535,-0.1528,-0.1599,-0.16,-0.16,-0.16,0,-0.0783,-0.0821,-0.0855,-0.0927,-0.0969,-0.1023,-0.1131,-0.1168,-0.1273,-0.1341,-0.1378,-0.1466,-0.1499,-0.1539,-0.1575,-0.1515,-0.1489,-0.1432,-0.1534,-0.1523,-0.1308,-0.1306,-0.1272,-0.1268,-0.1264,-0.1261,-0.1258,0,-0.076,-0.078,-0.0872,-0.0897,-0.0935,-0.1026,-0.1077,-0.1182,-0.12,-0.1315,-0.131,-0.1391,-0.1431,-0.1371,-0.1436,-0.1403,-0.1378,-0.1333,-0.1346,-0.1294,-0.1279,-0.1283,-0.1286,-0.1253,-0.1252,-0.1251,-0.125,0,-0.0713,-0.076,-0.0791,-0.087,-0.0916,-0.0965,-0.1028,-0.1042,-0.1137,-0.1222,-0.122,-0.1244,-0.1258,-0.1293,-0.1273,-0.125,-0.1367,-0.1295,-0.1302,-0.1313,-0.127,-0.126,-0.1267,-0.1237,-0.1239,-0.124,-0.1241,0,-0.0685,-0.07,-0.0751,-0.0823,-0.0867,-0.0872,-0.093,-0.093,-0.0983,-0.1083,-0.1081,-0.1156,-0.1242,-0.1208,-0.1195,-0.1172,-0.1149,-0.1096,-0.1114,-0.1128,-0.111,-0.1036,-0.0907,0,0,0,0,0,-0.064,-0.0648,-0.069,-0.0743,-0.0778,-0.0813,-0.0864,-0.0904,-0.0994,-0.0952,-0.1015,-0.1022,-0.1029,-0.1072,-0.1017,-0.1122,-0.1152,-0.105,-0.1101,-0.1166,-0.1181,-0.1175,0,0,0,0,0,0,-0.0601,-0.0626,-0.0663,-0.066,-0.0679,-0.0704,-0.0733,-0.0793,-0.0771,-0.0869,-0.088,-0.0942,-0.0969,-0.1055,-0.0998,-0.1005,-0.1006,-0.1096,-0.1091,-0.1158,-0.1171,-0.1183,-0.1182,0,0,0,0,0]},{"header":{"parameterUnit":"m.s-1","parameterCategory":2,"la1":30.2991,"la2":30.254,"lo1":-89.0895,"lo2":-89.0444,"dy":0.0017,"dx":0.0017,"nx":28,"ny":28,"refTime":"2026-02-02T03:00:00:Z","depth":"4","parameterNumber":3,"parameterNumberName":"V-component_of_CURRENTS"},"data":[0,0,0,0,0,0,0,0,0,0,0,0,0,0,0,0,0,0,0,0,0,0,0,0,0,0,0,0,0,0,0,0,0,0,0,0,0,0,0,0,0,0,0,0,0,0,0,0,0,0,0,0,0,0,0,0,0,0,0.027,0.027,0,0.0265,0.0265,0.0265,0.0296,0.0297,0.0297,0.0298,0.0323,0.0323,0.0323,0,0,0,0,0,0,0,0,0,0,0,0,0,0.0282,0.0282,0.027,0.027,0.027,0.0265,0.0265,0.0265,0.0295,0.0297,0.0298,0.0299,0.0323,0.0323,0.0323,0,0,0,0,0,0,0,0,0,0,0,0,0,0.0276,0.0282,0.027,0.0285,0.0287,0.0265,0.0265,0.0265,0.0295,0.0297,0.0298,0.0299,0.0323,0.0323,0.0323,0.0293,0,0,0.0322,0.0322,0,0,0,0,0,0,0,0,0.0277,0.0276,0.0283,0.0284,0.0286,0.0283,0.0279,0.0276,0.0295,0.0291,0.0298,0.03,0.0312,0.0313,0.0307,0.0294,0.0295,0.0322,0.0322,0.0321,0.0321,0,0,0,0,0,0,0,0.0277,0.0276,0.0267,0.0283,0.0284,0.0284,0.0285,0.0278,0.0294,0.0291,0.0294,0.0294,0.0313,0.0307,0.0308,0.0295,0.0322,0.0321,0.0321,0.0321,0.028,0.0279,0,0,0,0,0,0,0.0279,0.0276,0.0267,0.0267,0.0285,0.0283,0.0284,0.0282,0.0293,0.0296,0.0293,0.0296,0.0307,0.0308,0.0309,0.029,0.0321,0.0321,0.0321,0.0281,0.028,0.0279,0,0,0,0,0,0,0.0279,0.0278,0.0268,0.0273,0.0272,0.0282,0.0279,0.0281,0.0283,0.0294,0.0298,0.0294,0.0308,0.031,0.0295,0.0291,0.0321,0.0321,0.0282,0.0281,0.0279,0.0242,0,0,0,0,0,0,0.0279,0.0278,0.0275,0.0273,0.0271,0.0248,0.0278,0.028,0.0281,0.0284,0.0295,0.0299,0.031,0.0295,0.0295,0.0291,0.032,0.0283,0.0281,0.028,0.0244,0.0239,0.0235,0,0,0,0,0,0.028,0.0268,0.0275,0.0274,0.0267,0.0247,0.0245,0.0257,0.0279,0.0267,0.0275,0.0299,0.0285,0.0294,0.0293,0.0289,0.0284,0.0282,0.028,0.0246,0.024,0.0235,0,0,0,0,0,0,0.0276,0.0269,0.0277,0.0266,0.0255,0.0252,0.0247,0.0255,0.0251,0.0264,0.0278,0.028,0.0266,0.0277,0.0287,0.0272,0.0292,0.029,0.0266,0.0261,0.0256,0.0269,0.032,0,0,0,0,0,0.0272,0.0263,0.0254,0.0247,0.0242,0.0245,0.024,0.0247,0.0245,0.0246,0.025,0.0258,0.0254,0.0258,0.0252,0.024,0.025,0.0239,0.0235,0.0231,0.024,0.0255,0.0253,0.0272,0.0272,0.0272,0,0,0.027,0.0267,0.0262,0.0246,0.0244,0.0218,0.0245,0.0238,0.0219,0.0248,0.0227,0.0236,0.0244,0.0229,0.0226,0.0242,0.0222,0.0228,0.0225,0.0237,0.0253,0.0251,0.0249,0.0271,0.0271,0.0271,0,0,0.0256,0.0257,0.0241,0.0225,0.0217,0.0208,0.0204,0.0196,0.0198,0.0175,0.0194,0.02,0.0187,0.0197,0.02,0.0167,0.0191,0.0168,0.0164,0.0177,0.0176,0.0175,0.015,0.0147,0.0174,0.0174,0.0174,0,0.0256,0.0233,0.0232,0.0209,0.0194,0.0199,0.0172,0.0162,0.015,0.0156,0.0164,0.0164,0.0173,0.0169,0.0164,0.0159,0.016,0.0184,0.0173,0.0172,0.0173,0.0147,0.0145,0.0172,0.0172,0.0173,0.0173,0,0.0224,0.0203,0.0192,0.0161,0.0141,0.012,0.0104,0.009,0.0097,0.0103,0.0102,0.011,0.0124,0.0122,0.0135,0.0141,0.0136,0.0158,0.0189,0.0169,0.0142,0.014,0.0169,0.017,0.017,0.0171,0,0,0.0226,0.0179,0.0174,0.0147,0.0117,0.0092,0.0064,0.0045,0.0041,0.0042,0.0042,0.0048,0.0085,0.0091,0.011,0.0126,0.0117,0.0149,0.015,0.0128,0.0119,0.01,0.0096,0.0144,0.0145,0.0145,0.0087,0,0.0201,0.0152,0.0132,0.007,0.0039,0.0027,0.0,-0.0008,-0.0005,-0.0008,0.0026,0.0031,0.0062,0.0077,0.0098,0.0123,0.0117,0.0129,0.014,0.0139,0.013,0.0096,0.0146,0.0086,0.0086,0.0086,0.0085,0,0.017,0.0141,0.0092,0.0028,0.0015,-0.0019,-0.0049,-0.0068,-0.0057,-0.0047,-0.0017,0.0008,0.0038,0.0061,0.0095,0.0104,0.0107,0.0117,0.0115,0.0118,0.0119,0.012,0.0083,0.0083,0.0083,0.0084,0.0084,0,0.0164,0.01,0.0063,0.0041,-0.0017,-0.0037,-0.0062,-0.0062,-0.0072,-0.0055,-0.0054,-0.0012,0.0007,0.0038,0.0075,0.0089,0.0096,0.0114,0.0081,0.0078,0.0132,0.0133,0.0111,0.0111,0.0112,0.0112,0.0112,0,0.0131,0.0092,0.0059,0.0029,-0.0011,-0.0039,-0.0074,-0.0082,-0.0086,-0.0082,-0.0057,-0.0053,0.0008,0.0025,0.0056,0.0066,0.008,0.0071,0.0069,0.0109,0.011,0.0128,0.0131,0.011,0.011,0.011,0.0111,0,0.0116,0.0095,0.0043,-0.0006,-0.0017,-0.004,-0.0091,-0.0106,-0.0108,-0.0107,-0.01,-0.0079,-0.0039,-0.0012,0.0029,0.0031,0.0047,0.0034,0.0043,0.0044,0.0015,0.0016,-0.001,-0.0011,-0.0012,-0.0013,-0.0013,0,0.0098,0.0078,0.0036,0.0023,-0.0002,-0.004,-0.0055,-0.0095,-0.0109,-0.0116,-0.0109,-0.0091,-0.0066,-0.0032,-0.0005,0.0012,0.0017,-0.0014,0.003,0.0006,0.0006,0.0008,0.0011,-0.0015,-0.0015,-0.0015,-0.0015,0,0.0062,0.0063,0.0032,0.0047,0.002,-0.0029,-0.0059,-0.0078,-0.01,-0.0131,-0.0097,-0.0082,-0.0061,-0.0019,-0.0023,-0.0004,-0.0002,-0.0022,-0.002,0.0021,-0.0,0.0001,0.0005,-0.0018,-0.0018,-0.0017,-0.0017,0,0.0061,0.0048,0.0058,0.0074,0.0055,0.004,-0.0022,-0.0038,-0.0061,-0.0076,-0.0065,-0.0039,-0.0035,-0.0032,-0.0022,-0.0014,-0.0009,-0.0019,-0.0016,-0.0013,0.0013,-0.0013,-0.0043,0,0,0,0,0,0.0079,0.0098,0.0093,0.0111,0.0103,0.0115,0.0027,-0.0035,-0.0081,-0.0045,-0.0053,-0.0021,-0.0008,-0.0012,0.0001,-0.0043,-0.0017,-0.0036,-0.0028,-0.0035,-0.0031,0.0,0,0,0,0,0,0,0.0093,0.01,0.0114,0.018,0.0222,0.0206,0.0162,0.0099,0.0094,0.0051,0.0066,0.0011,0.0032,0.0053,0.004,0.0029,0.0029,-0.0045,-0.0046,-0.0037,-0.0033,-0.0031,0.0003,0,0,0,0,0]}]]